Location: *
(50.2903°S, 172.5375°W)
Time: 14:05:31
(UTC+00:00)

Cosmos 1937 Rocket - Pass Details

Date: 17 November 2019
Orbit: 747 x 780 km, 74.0° (Epoch: 06 December)

Event Time Altitude Azimuth Distance (km) Brightness Sun altitude
Rises 13:17:13 0° 202° (SSW) 3,303 7.3 -15.7°
Reaches altitude 10° 13:19:42 10° 198° (SSW) 2,366 6.6 -15.5°
Maximum altitude 13:24:59 55° 119° (ESE) 937 4.3 -15.0°
Drops below altitude 10° 13:30:11 10° 41° (NE) 2,320 5.8 -14.6°
Sets 13:32:35 0° 36° (NE) 3,234 6.5 -14.4°
